Simultaneous Nadir Overpasses (SNOs) Predictions

Prediction of SNOs between METOP-B and TERRA Satellite Orbit:

Table of predicted SNOs for the next 14.0 days since TLE Epoch: 9/21/2019
Index Date (METOP-B) Time (METOP-B) Lat,Lon (METOP-B) SZA (METOP-B ) Date (TERRA) Time (TERRA) Lat,Lon (TERRA) SZA (TERRA ) Distance(km) Time Diff (sec)
1 09/23/2019 01:37:24 -81.31, 22.72 95.83 09/23/2019 01:37:42 -81.31, 22.67 95.83 1.24 18
2 09/23/2019 02:28:03 81.32,-169.38 84.26 09/23/2019 02:27:08 81.31,-169.58 84.21 3.37 55
3 09/25/2019 21:11:44 -81.32, 89.41 94.67 09/25/2019 21:11:56 -81.31, 89.22 94.69 3.28 12
4 09/25/2019 22:02:24 81.32,-103.13 85.36 09/25/2019 22:01:22 81.32,-103.06 85.34 1.23 62
5 09/28/2019 16:46:06 -81.32, 155.70 93.57 09/28/2019 16:46:11 -81.32, 155.72 93.57 0.46 5
6 09/28/2019 17:36:45 81.32, -36.48 86.51 09/28/2019 17:35:37 81.32, -36.58 86.46 1.63 68
7 10/01/2019 11:29:47 81.31, 54.49 87.50 10/01/2019 11:30:59 81.32, 54.56 87.54 1.31 72
8 10/01/2019 12:20:27 -81.32,-137.64 92.43 10/01/2019 12:20:26 -81.32,-137.81 92.45 2.98 1
9 10/01/2019 13:10:42 81.32, 39.65 88.81 10/01/2019 13:09:29 81.69, 39.04 88.89 42.66 73
10 10/04/2019 07:04:07 81.32, 121.12 88.63 10/04/2019 07:05:13 81.32, 120.95 88.64 2.80 66




NCC Satellite Simultaneous Nadir Overpasses (SNOs) Prediction Service
